sat.trackr.live / text

‹ back to catalog

STARLINK-36499

NORAD 67359 · 2026-003AB

PAYLOAD ACTIVE UNKNOWN

§ Identity

Operator
Country
US
Launch date
2026-01-09
Launch site
AFETR
Launch vehicle
Mass (kg)
RCS (m²)

Purposes: comms

External: N2YO · Heavens-Above · Gunter

§ Orbital elements

Epoch: 2026-05-25T00:37:08.662080Z

Period
94.27 min
Inclination
43.0013°
Eccentricity
0.0001442
Mean motion
15.27576004 rev/d
Perigee alt
482.1 km
Apogee alt
484.1 km
Semi-major
6,861.2 km
B*
5.4410e-4
RAAN
156.3849°
Arg perigee
264.8424°
Mean anomaly
95.2263°
Rev number
2,049

§ Raw data

STARLINK-364991 67359U 26003AB  26145.02579470  .00014739  00000+0  54410-3 0  99932 67359  43.0013 156.3849 0001442 264.8424  95.2263 15.27576004 20499

JSON: /api/v1/satellites/67359 · /tle

For live sub-satellite position, see the globe view (requires WebGL).

§ Visibility from observer

Set your observer location to see the next 7 days of passes ≥ 10°. The values pass through the URL so the page stays shareable.

No JS? Fill the form by hand. The geolocation button needs JavaScript.